Regional Weather Roundup
Issued by NWS

Home | Current Version | Previous Version | Graphics & Text | Print | Product List | Glossary On
Versions: 1 2 3 4 5 6 7 8 9 10 11 12 13 14 15 16 17 18 19 20 21 22 23 24 25 26 27 28 29 30 31 32 33 34 35 36 37 38 39 40 41 42 43 44 45 46 47 48 49 50
000
ASUS45 KBOI 301210
RWRID

IDAHO REGIONAL WEATHER ROUNDUP
NATIONAL WEATHER SERVICE BOISE ID
600 AM MDT SAT MAY 30 2015

NOTE: "FAIR" INDICATES FEW OR NO CLOUDS BELOW 12000 FEET
WITH NO SIGNIFICANT WEATHER AND/OR OBSTRUCTIONS TO VISIBILITY

IDZ012-014-301300-
SOUTHWEST IDAHO


CITY           SKY/WX    TMP DP  RH WIND       PRES   REMARKS
BOISE          MOCLDY    69  42  37 SE9       29.90F
CALDWELL       MOCLDY    64  45  48 CALM      29.91R
MOUNTAIN HOME  PTCLDY    65  45  47 E16       29.91F
$$

IDZ016-017-301300-
SOUTHCENTRAL IDAHO


CITY           SKY/WX    TMP DP  RH WIND       PRES   REMARKS
BURLEY         CLEAR     49  44  83 CALM      30.03F
JEROME         CLEAR     55  43  63 NE14      30.02S
TWIN FALLS     CLEAR     62  42  47 S10       29.98F
$$

IDZ019>023-301300-
SOUTHEAST IDAHO


CITY           SKY/WX    TMP DP  RH WIND       PRES   REMARKS
IDAHO FALLS    PTCLDY    44  42  93 N6        30.13S
POCATELLO      PTCLDY    47  46  97 NE3       30.10F
REXBURG        PTCLDY    46  43  89 CALM      30.14S
$$

IDZ006-010-011-018-031-032-301300-
CENTRAL IDAHO MOUNTAINS


CITY           SKY/WX    TMP DP  RH WIND       PRES   REMARKS
MCCALL         CLOUDY    53  47  79 N9        30.05S
HAILEY         PTCLDY    48  41  76 NW9       30.14S
STANLEY          N/A     43  36  76 S6        30.17F
SALMON           N/A     48  45  87 CALM      30.07S
CHALLIS        CLOUDY    48  42  80 N3        30.12S
$$

IDZ002-004-006-007-026-301300-
NORTHERN IDAHO


CITY           SKY/WX    TMP DP  RH WIND       PRES   REMARKS
LEWISTON       CLOUDY    65  54  67 E6        29.88F
LOWELL           N/A     57  55  93 CALM      29.99F
COEUR D`ALENE  CLOUDY    57  52  82 N6        29.93F
MULLAN PASS    CLOUDY    52  41  66 SW6       30.08R
$$



USA.gov is the U.S. government's official web portal to all federal, state and local government web resources and services.